Powrót do katalogu

STARLINK-6142

AktywnyŁącznośćVLEO
NORAD 57113·PAYLOAD·🇺🇸 United States

Wystrzelony Jun 23, 2023 z Cape Canaveral Space Force Station

Loading…

Następne Przeloty (najbliższe 24 godziny)

TLE

ŚwieżeSource: CelesTrak SupGP

Epoka: Sep 14, 2026, 13:59 UTC

1 57113C 23090N   26257.58312500  .00052915  00000+0  19164-2 0  2578
2 57113  43.0008 294.5703 0001572 271.7549  92.9507 15.27555020    19

Śledź STARLINK-6142 w czasie rzeczywistym z AllMySat

Download on the App Store